EZY94QE EGCC-EGNS

Flight info

Callsign EZY94QE
Flight time 0h 23m
Altitude 14000
Route EKLAD Y53 WAL M146 LUSOD DCT IOM
Aircraft A320/M-SDE3FGHIRWY/LB1

Departure

Time 2026-05-01 14:44
Airport Manchester Airport (EGCC)

Arrival

Time 2026-05-01 15:08
Airport Isle of Man Airport (EGNS)
Time Latitude Longitude Altitude Speed Heading
2026-05-01 14:08 53.36621 -2.29035 255 ft 0 kts 225°
2026-05-01 14:25 53.36622 -2.29034 255 ft 1 kts 225°
2026-05-01 14:26 53.36638 -2.29006 255 ft 2 kts 225°
2026-05-01 14:26 53.36672 -2.29003 255 ft 2 kts 135°
2026-05-01 14:26 53.36663 -2.28987 255 ft 4 kts 134°
2026-05-01 14:27 53.36658 -2.28980 255 ft 0 kts 134°
2026-05-01 14:31 53.36633 -2.28908 255 ft 11 kts 114°
2026-05-01 14:31 53.36594 -2.28809 255 ft 10 kts 124°
2026-05-01 14:31 53.36557 -2.28721 255 ft 9 kts 129°
2026-05-01 14:31 53.36517 -2.28652 255 ft 8 kts 134°
2026-05-01 14:32 53.36480 -2.28589 255 ft 7 kts 134°
2026-05-01 14:32 53.36446 -2.28530 255 ft 9 kts 130°
2026-05-01 14:32 53.36403 -2.28425 255 ft 10 kts 122°
2026-05-01 14:32 53.36374 -2.28348 255 ft 7 kts 121°
2026-05-01 14:33 53.36346 -2.28285 255 ft 6 kts 135°
2026-05-01 14:33 53.36315 -2.28236 255 ft 6 kts 136°
2026-05-01 14:33 53.36280 -2.28176 255 ft 5 kts 135°
2026-05-01 14:33 53.36234 -2.28098 255 ft 14 kts 135°
2026-05-01 14:34 53.36205 -2.28050 255 ft 8 kts 134°
2026-05-01 14:34 53.36165 -2.27986 255 ft 8 kts 136°
2026-05-01 14:34 53.36127 -2.27932 255 ft 7 kts 141°
2026-05-01 14:34 53.36091 -2.27887 255 ft 6 kts 143°
2026-05-01 14:35 53.36056 -2.27843 255 ft 9 kts 143°
2026-05-01 14:35 53.35993 -2.27763 255 ft 13 kts 146°
2026-05-01 14:35 53.35912 -2.27728 255 ft 12 kts 180°
2026-05-01 14:35 53.35834 -2.27728 253 ft 12 kts 174°
2026-05-01 14:36 53.35783 -2.27680 251 ft 5 kts 144°
2026-05-01 14:36 53.35757 -2.27656 250 ft 5 kts 155°
2026-05-01 14:36 53.35712 -2.27627 248 ft 8 kts 159°
2026-05-01 14:36 53.35661 -2.27574 246 ft 9 kts 142°
2026-05-01 14:37 53.35639 -2.27546 246 ft 0 kts 142°
2026-05-01 14:37 53.35628 -2.27532 246 ft 5 kts 142°
2026-05-01 14:37 53.35602 -2.27497 245 ft 1 kts 142°
2026-05-01 14:37 53.35600 -2.27495 245 ft 0 kts 142°
2026-05-01 14:40 53.35597 -2.27491 245 ft 1 kts 142°
2026-05-01 14:40 53.35590 -2.27482 245 ft 2 kts 142°
2026-05-01 14:40 53.35579 -2.27467 245 ft 1 kts 141°
2026-05-01 14:42 53.35541 -2.27417 247 ft 9 kts 141°
2026-05-01 14:42 53.35498 -2.27357 248 ft 12 kts 140°
2026-05-01 14:42 53.35417 -2.27248 247 ft 16 kts 141°
2026-05-01 14:42 53.35315 -2.27194 243 ft 17 kts 189°
2026-05-01 14:43 53.35168 -2.27242 231 ft 25 kts 192°
2026-05-01 14:43 53.35027 -2.27297 226 ft 8 kts 200°
2026-05-01 14:43 53.34992 -2.27355 225 ft 0 kts 230°
2026-05-01 14:43 53.34978 -2.27384 225 ft 19 kts 231°
2026-05-01 14:44 53.34719 -2.27920 225 ft 94 kts 231°
2026-05-01 14:44 53.33490 -2.30478 734 ft 158 kts 233°
2026-05-01 14:44 53.32792 -2.31966 1382 ft 170 kts 231°
2026-05-01 14:45 53.32009 -2.33616 1808 ft 196 kts 236°
2026-05-01 14:45 53.31231 -2.38546 2748 ft 249 kts 271°
2026-05-01 14:45 53.31568 -2.41488 3540 ft 262 kts 279°
2026-05-01 14:46 53.31893 -2.44501 4503 ft 264 kts 269°
2026-05-01 14:46 53.31229 -2.50536 6336 ft 266 kts 248°
2026-05-01 14:46 53.30692 -2.53462 7324 ft 268 kts 248°
2026-05-01 14:47 53.30143 -2.56498 8294 ft 271 kts 248°
2026-05-01 14:47 53.29603 -2.59493 9215 ft 275 kts 248°
2026-05-01 14:47 53.29043 -2.62576 10149 ft 279 kts 248°
2026-05-01 14:48 53.27811 -2.69217 11010 ft 319 kts 248°
2026-05-01 14:48 53.27149 -2.72800 11730 ft 326 kts 249°
2026-05-01 14:48 53.26361 -2.80381 13356 ft 344 kts 270°
2026-05-01 14:49 53.27874 -2.88095 14119 ft 360 kts 301°
2026-05-01 14:49 53.30917 -2.94869 14169 ft 384 kts 304°
2026-05-01 14:50 53.33143 -2.99854 14166 ft 411 kts 304°
2026-05-01 14:50 53.37825 -3.10372 14174 ft 428 kts 304°
2026-05-01 14:51 53.39683 -3.14274 14165 ft 430 kts 311°
2026-05-01 14:51 53.43894 -3.21429 14165 ft 431 kts 312°
2026-05-01 14:52 53.48071 -3.28542 14162 ft 431 kts 312°
2026-05-01 14:52 53.50173 -3.32137 14160 ft 431 kts 312°
2026-05-01 14:52 53.54365 -3.39340 14159 ft 431 kts 312°
2026-05-01 14:53 53.56458 -3.42951 14161 ft 431 kts 312°
2026-05-01 14:53 53.58431 -3.46721 14158 ft 428 kts 303°
2026-05-01 14:53 53.60158 -3.50786 14157 ft 428 kts 303°
2026-05-01 14:53 53.61886 -3.54887 14161 ft 428 kts 302°
2026-05-01 14:54 53.63607 -3.58984 14155 ft 428 kts 302°
2026-05-01 14:54 53.65327 -3.63083 14155 ft 428 kts 302°
2026-05-01 14:54 53.67045 -3.67181 14166 ft 428 kts 302°
2026-05-01 14:54 53.68766 -3.71293 14174 ft 429 kts 302°
2026-05-01 14:55 53.70479 -3.75400 14164 ft 429 kts 302°
2026-05-01 14:55 53.72197 -3.79519 14155 ft 429 kts 302°
2026-05-01 14:55 53.73883 -3.83562 14140 ft 408 kts 302°
2026-05-01 14:55 53.75445 -3.87303 14153 ft 372 kts 302°
2026-05-01 14:56 53.76879 -3.90737 14067 ft 344 kts 301°
2026-05-01 14:56 53.78212 -3.93942 13865 ft 324 kts 301°
2026-05-01 14:56 53.79487 -3.97031 13399 ft 318 kts 301°
2026-05-01 14:56 53.80742 -4.00088 12984 ft 315 kts 300°
2026-05-01 14:57 53.81991 -4.03131 12580 ft 313 kts 300°
2026-05-01 14:57 53.84487 -4.09216 11754 ft 315 kts 300°
2026-05-01 14:57 53.85730 -4.12248 11473 ft 310 kts 300°
2026-05-01 14:58 53.86545 -4.14235 11149 ft 313 kts 300°
2026-05-01 14:58 53.87777 -4.17239 10899 ft 307 kts 300°
2026-05-01 14:58 53.88990 -4.20190 10621 ft 303 kts 300°
2026-05-01 14:58 53.90189 -4.23119 10276 ft 302 kts 300°
2026-05-01 14:59 53.91779 -4.27021 9660 ft 308 kts 300°
2026-05-01 14:59 53.92598 -4.29036 9469 ft 305 kts 300°
2026-05-01 14:59 53.93775 -4.31985 9112 ft 299 kts 295°
2026-05-01 14:59 53.94647 -4.35141 8706 ft 293 kts 287°
2026-05-01 15:00 53.96192 -4.41459 7405 ft 286 kts 288°
2026-05-01 15:00 53.96955 -4.44565 6745 ft 283 kts 288°
2026-05-01 15:00 53.97706 -4.47640 6059 ft 280 kts 288°
2026-05-01 15:01 53.98438 -4.50637 5416 ft 276 kts 288°
2026-05-01 15:01 53.99168 -4.53631 4748 ft 273 kts 289°
2026-05-01 15:01 53.99889 -4.56594 4057 ft 269 kts 289°
2026-05-01 15:01 54.00594 -4.59515 3564 ft 262 kts 288°
2026-05-01 15:02 54.01216 -4.62338 3413 ft 247 kts 279°
2026-05-01 15:02 54.01300 -4.64243 3329 ft 234 kts 264°
2026-05-01 15:02 54.01102 -4.67754 3143 ft 218 kts 260°
2026-05-01 15:02 54.00922 -4.70261 3020 ft 209 kts 259°
2026-05-01 15:03 54.00750 -4.72674 2887 ft 202 kts 259°
2026-05-01 15:03 54.00791 -4.75035 2772 ft 199 kts 276°
2026-05-01 15:03 54.01063 -4.77266 2656 ft 187 kts 278°
2026-05-01 15:03 54.01364 -4.79383 2411 ft 182 kts 279°
2026-05-01 15:04 54.01893 -4.81337 2073 ft 189 kts 310°
2026-05-01 15:04 54.03022 -4.82358 2011 ft 180 kts 343°
2026-05-01 15:04 54.04211 -4.82469 2014 ft 166 kts
2026-05-01 15:04 54.05286 -4.81892 2017 ft 160 kts 29°
2026-05-01 15:05 54.06150 -4.80788 2001 ft 153 kts 49°
2026-05-01 15:05 54.06740 -4.79310 2008 ft 150 kts 69°
2026-05-01 15:05 54.07024 -4.77622 1934 ft 147 kts 88°
2026-05-01 15:05 54.07164 -4.75902 1750 ft 146 kts 88°
2026-05-01 15:06 54.07303 -4.74202 1538 ft 145 kts 88°
2026-05-01 15:06 54.07439 -4.72510 1316 ft 143 kts 88°
2026-05-01 15:06 54.07570 -4.70850 1089 ft 144 kts 89°
2026-05-01 15:06 54.07704 -4.69168 846 ft 142 kts 89°
2026-05-01 15:07 54.07823 -4.67493 662 ft 141 kts 86°
2026-05-01 15:07 54.07926 -4.65811 388 ft 144 kts 87°
2026-05-01 15:07 54.08111 -4.64149 123 ft 141 kts 79°
2026-05-01 15:07 54.08303 -4.62587 35 ft 117 kts 78°
2026-05-01 15:08 54.08411 -4.61731 34 ft 39 kts 78°
2026-05-01 15:08 54.08477 -4.61438 33 ft 14 kts 13°
2026-05-01 15:08 54.08531 -4.61519 33 ft 10 kts 278°
2026-05-01 15:08 54.08538 -4.61616 33 ft 5 kts 275°
2026-05-01 15:09 54.08541 -4.61664 33 ft 4 kts 275°
2026-05-01 15:09 54.08543 -4.61700 33 ft 3 kts 275°
2026-05-01 15:09 54.08546 -4.61760 33 ft 7 kts 275°
2026-05-01 15:09 54.08550 -4.61840 33 ft 6 kts 275°
2026-05-01 15:10 54.08548 -4.61906 34 ft 7 kts 264°
2026-05-01 15:10 54.08510 -4.62192 35 ft 14 kts 256°
2026-05-01 15:10 54.08491 -4.62346 35 ft 10 kts 259°
2026-05-01 15:11 54.08478 -4.62464 32 ft 11 kts 259°
2026-05-01 15:11 54.08446 -4.62733 34 ft 12 kts 259°
2026-05-01 15:11 54.08428 -4.62884 34 ft 14 kts 257°
2026-05-01 15:12 54.08454 -4.62995 34 ft 10 kts 343°
2026-05-01 15:12 54.08580 -4.63048 34 ft 8 kts 327°
2026-05-01 15:12 54.08615 -4.63120 33 ft 8 kts 302°
2026-05-01 15:13 54.08630 -4.63264 33 ft 1 kts 224°
2026-05-01 15:14 54.08629 -4.63266 33 ft 0 kts 224°
2026-05-01 15:16 54.08629 -4.63265 33 ft 0 kts 224°
2026-05-01 15:16 54.08629 -4.63266 33 ft 0 kts 224°